This demonstration page uses our WeatherBlox Daily Observations layout. Learn more.

Left ArrowRight Arrow

38.20091, -84.87328

Hourly Observations for February 13, 2020

Temp ( °F °C ) Dew Point ( °F °C ) Humidity (%) Winds ( mph kmh ) Pressure ( in mb ) Visibility ( mi km ) Precip ( " mm )
12:01 am 00:01 Cloudy 38 3.3 36 2.2 93 93 Calm 29.70 1006 10 16 0.00 0.00
12:09 am 00:09 Cloudy 38 3.3 36 2.2 93 93 Calm 29.72 1006 10 16 0.00 0.00
12:53 am 00:53 Cloudy 38 3.3 37 2.8 97 97 Calm 29.70 1006 10 16 0.00 0.00
1:53 am 01:53 Cloudy 38 3.3 36 2.2 93 93 Calm 29.70 1006 10 16 0.00 0.00
2:17 am 02:17 Cloudy 38 3.3 36 2.2 93 93 Calm 29.75 1007 10 16 0.00 0.00
2:53 am 02:53 Cloudy with Mist and Fog 38 3.3 36 2.2 93 93 Calm 29.72 1006 4 6 0.00 0.00
3:31 am 03:31 Cloudy with Light Rain 38 3.3 37 2.8 97 97 NNW 3 6 29.73 1007 2 3 0.00 0.00
3:53 am 03:53 Cloudy with Mist and Fog 38 3.3 37 2.8 97 97 Calm 29.70 1006 1 2 0.00 0.00
4:05 am 04:05 Mostly Cloudy with Mist and Fog 38 3.3 37 2.8 97 97 Calm 29.71 1006 1 1 0.00 0.00
4:53 am 04:53 Mostly Cloudy with Fog 38 3.3 36 2.2 93 93 W 5 7 29.71 1006 1 1 0.00 0.00
5:16 am 05:16 Mostly Cloudy with Mist and Fog 38 3.3 37 2.8 97 97 W 5 7 29.76 1008 1 2 0.00 0.00
5:31 am 05:31 Cloudy with Light Rain 38 3.3 36 2.2 93 93 W 6 9 29.77 1008 2 3 0.00 0.00
5:40 am 05:40 Cloudy with Mist and Fog 37 2.8 36 2.2 96 96 W 8 13 29.78 1009 2 3 0.00 0.00
5:51 am 05:51 Cloudy with Mist and Fog 37 3 36 2 93 93 WNW 6 9 29.78 1009 3 5 0.00 0.00
5:53 am 05:53 Cloudy with Mist and Fog 37 2.8 36 2.2 96 96 WNW 8 13 29.76 1008 4 6 0.00 0.00
6:17 am 06:17 Cloudy with Mist and Fog 37 2.8 36 2.2 96 96 WNW 7 11 29.78 1009 5 8 0.01 0.25
6:31 am 06:31 Cloudy with Light Rain 37 2.8 36 2.2 96 96 W 6 9 29.79 1009 3 5 0.01 0.25
6:42 am 06:42 Cloudy with Light Rain 37 2.8 36 2.2 96 96 WNW 6 9 29.80 1009 4 6 0.02 0.51
6:53 am 06:53 Cloudy with Mist and Fog 37 2.8 36 2.2 96 96 WNW 7 11 29.79 1009 4 6 0.02 0.51
7:22 am 07:22 Cloudy with Mist and Fog 37 2.8 36 2.2 96 96 WNW 7 11 29.82 1010 6 10 0.01 0.25
7:41 am 07:41 Cloudy 37 2.8 36 2.2 96 96 WNW 7 11 29.83 1010 10 16 0.01 0.25
7:53 am 07:53 Cloudy 37 2.8 36 2.2 96 96 W 7 11 29.82 1010 8 13 0.01 0.25
8:51 am 08:51 Cloudy 37 3 34 1 87 87 WNW 7 11 29.88 1012 10 16 0.00 0.00
8:53 am 08:53 Cloudy 37 2.8 34 1.1 89 89 WNW 7 11 29.87 1012 10 16 0.00 0.00
9:05 am 09:05 Cloudy 37 2.8 34 1.1 89 89 WNW 7 11 29.89 1012 10 16 0.00 0.00
9:26 am 09:26 Cloudy 37 2.8 34 1.1 89 89 WNW 9 15 29.92 1013 10 16 0.00 0.00
9:53 am 09:53 Cloudy 37 2.8 34 1.1 89 89 WNW 13 20 29.91 1013 10 16 0.00 0.00
10:20 am 10:20 Cloudy 36 2.2 34 1.1 93 93 WNW 7 11 29.95 1014 10 16 0.00 0.00
10:40 am 10:40 Cloudy 36 2.2 33 0.6 89 89 VRB 6 9 29.96 1015 10 16 0.00 0.00
10:53 am 10:53 Cloudy 37 2.8 34 1.1 89 89 WNW 9 15 29.95 1014 10 16 0.00 0.00
10:59 am 10:59 Cloudy 37 2.8 34 1.1 89 89 WNW 7 11 29.98 1015 10 16 0.00 0.00
11:51 am 11:51 Cloudy 37 3 32 0 81 81 NW 10 17 30.01 1016 10 16 0.00 0.00
11:53 am 11:53 Cloudy 37 2.8 32 0 82 82 NW 10 17 29.99 1016 10 16 0.00 0.00
12:28 pm 12:28 Cloudy 38 3.3 32 0 79 79 NW 7 11 30.03 1017 10 16 0.00 0.00
12:53 pm 12:53 Cloudy 38 3.3 32 0 79 79 NW 9 15 30.02 1017 10 16 0.00 0.00
1:53 pm 13:53 Cloudy 40 4.4 32 0 73 73 W 10 17 30.03 1017 10 16 0.00 0.00
2:34 pm 14:34 Cloudy 39 3.9 31 -0.6 73 73 WNW 9 15 30.08 1019 10 16 0.00 0.00
2:41 pm 14:41 Cloudy 39 3.9 31 -0.6 73 73 W 8 13 30.08 1019 10 16 0.00 0.00
2:53 pm 14:53 Cloudy 39 3.9 31 -0.6 73 73 W 10 17 30.07 1018 10 16 0.00 0.00
3:53 pm 15:53 Cloudy 39 3.9 30 -1.1 70 70 WNW 7 11 30.09 1019 10 16 0.00 0.00
4:10 pm 16:10 Cloudy 39 3.9 30 -1.1 70 70 W 8 13 30.12 1020 10 16 0.00 0.00
4:53 pm 16:53 Cloudy 39 3.9 30 -1.1 70 70 W 13 20 30.12 1020 10 16 0.00 0.00
5:12 pm 17:12 Cloudy 37 2.8 29 -1.7 73 73 WNW 17 28 30.16 1021 10 16 0.00 0.00
5:53 pm 17:53 Cloudy 33 0.6 26 -3.3 75 75 WNW 15 24 30.18 1022 10 16 0.00 0.00
6:53 pm 18:53 Cloudy 32 0 24 -4.4 73 73 WNW 9 15 30.21 1023 10 16 0.00 0.00
7:53 pm 19:53 Cloudy 31 -0.6 22 -5.6 69 69 W 8 13 30.25 1024 10 16 0.00 0.00
8:20 pm 20:20 Cloudy 30 -1.1 21 -6.1 69 69 WNW 9 15 30.29 1026 10 16 0.00 0.00
8:53 pm 20:53 Mostly Cloudy 28 -2.2 18 -7.8 66 66 WNW 10 17 30.27 1025 10 16 0.00 0.00
9:28 pm 21:28 Mostly Cloudy 27 -2.8 18 -7.8 69 69 WNW 9 15 30.31 1026 10 16 0.00 0.00
9:53 pm 21:53 Cloudy 27 -2.8 16 -8.9 63 63 WNW 12 19 30.30 1026 10 16 0.00 0.00
10:53 pm 22:53 Cloudy 25 -3.9 15 -9.4 66 66 VRB 7 11 30.32 1027 10 16 0.00 0.00
11:53 pm 23:53 Cloudy 23 -5 12 -11.1 63 63 NW 10 17 30.35 1028 10 16 0.00 0.00

Powered by AerisWeather